Regional Weather Roundup
Issued by NWS

Home | Current Version | Previous Version | Graphics & Text | Print | Product List | Glossary On
Versions: 1 2 3 4 5 6 7 8 9 10 11 12 13 14 15 16 17 18 19 20 21 22 23 24 25 26 27 28 29 30 31 32 33 34 35 36 37 38 39 40 41 42 43 44 45 46 47 48 49 50
000
ASUS43 KIND 010109
RWRIN

WEATHER ROUNDUP FOR INDIANA
NATIONAL WEATHER SERVICE INDIANAPOLIS IN
900 PM EDT FRI JUL 31 2015

NOTE: "FAIR" INDICATES FEW OR NO CLOUDS BELOW 12,000 FEET WITH NO
SIGNIFICANT WEATHER AND/OR OBSTRUCTIONS TO VISIBILITY.

* - STATION DOES NOT REPORT WEATHER SUCH AS PRECIPITATION OR FOG.

+ - STATION NOT QUALITY CONTROLLED BY THE NATIONAL WEATHER SERVICE.
    USE DATA WITH CAUTION...ESPECIALLY DEWPOINT AND RELATIVE
    HUMIDITY OBSERVATIONS.

INZ001>003-010>013-019-020-010200-
NORTHWEST INDIANA

CITY           SKY/WX    TMP DP  RH WIND       PRES   REMARKS
GARY /AIRPORT/ CLEAR     81  48  32 W14       29.94R
KNOX *+        CLEAR     72  54  53 N7        29.94R
LA PORTE +     CLEAR     73  58  58 NW3       29.95S
MICHIGAN CITY+ CLEAR     72  59  64 CALM      29.94S
MONTICELLO +   CLEAR     77  59  53 W5        29.94S
RENSSELAER +   CLEAR     77  55  47 W5        29.95S
VALPARAISO     CLEAR     75  55  49 CALM      29.95R

$$

LMZ046-743>745-010200-
SOUTHERN LAKE MICHIGAN

STATION/POSITION TIME  TEMP    WIND        PRES    WAVE
                       AIR SEA DIR/SP/G            HT
                 (UTC) (F)     (DEG/KT/KT) (MB)    (FT)
BURNS HARBOR     0000   77     360/  9/ 12 1013.9S
MICHIGAN CITY    0000   76     330/ 12/ 13   N/A
5NW MICH CITY    0100   74 74   10/  6/  8   N/A     3

$$

INZ004-005-014>016-021>024-010200-
NORTH CENTRAL INDIANA

CITY           SKY/WX    TMP DP  RH WIND       PRES   REMARKS
ELKHART        CLEAR     75  50  41 CALM      29.94R
GOSHEN         CLEAR     74  52  46 N9        29.93S
LOGANSPORT +   CLEAR     77  46  33 W6        29.95R
PERU/GRISSOM   CLEAR     74  60  62 W7        29.93R
ROCHESTER +    CLEAR     77  55  47 NW5       29.95R
SOUTH BEND     CLEAR     73  52  47 NW6       29.94S
WARSAW +       CLEAR     72  54  53 NW5       29.94R

$$

INZ006>009-017-018-025>027-010200-
NORTHEAST INDIANA

CITY           SKY/WX    TMP DP  RH WIND       PRES   REMARKS
ANGOLA *+      CLEAR     73  63  68 NW5       29.93R
AUBURN +       CLEAR     75  52  43 NW5       29.93R
FORT WAYNE     PTCLDY    77  56  48 NW7       29.92S
HUNTINGTON +   MOCLDY    76  58  52 NW5       29.93R

$$

INZ028-029-035-036-043>045-051>053-010200-
WEST CENTRAL INDIANA

CITY           SKY/WX    TMP DP  RH WIND       PRES   REMARKS
CRAWFORDSVL +  CLEAR     72  57  58 W5          N/A
GREENCASTLE +  CLEAR     77  52  41 CALM      29.99S
LAFAYETTE      CLEAR     74  61  63 W6        29.95S
TERRE HAUTE    CLEAR     80  58  46 NW5       29.98S

$$

INZ030>032-037>040-046>048-054>057-064-065-010200-
CENTRAL INDIANA

CITY           SKY/WX    TMP DP  RH WIND       PRES   REMARKS
FISHERS *+     CLEAR     75  61  60 W7        29.96
FRANKFORT +    CLEAR     72  64  76 SW5       29.98S
INDIANAPOLIS   PTCLDY    79  58  48 W10       29.96S
-EAGLE CREEK   CLEAR     78  58  49 W8        29.96S
KOKOMO *+      CLEAR     77  57  50 W9        29.94S
MARION +       CLEAR     71  59  64 W5        29.94S
MT COMFORT *+  CLEAR     77  45  31 W9        29.97S
SHELBYVILLE    CLEAR     81  56  42 NW10      29.95R
ZIONSVILLE +   CLEAR     75  57  53 W6        29.97F

$$

INZ033-034-041-042-049-050-058-059-010200-
EAST CENTRAL INDIANA

CITY           SKY/WX    TMP DP  RH WIND       PRES   REMARKS
MUNCIE         CLEAR     75  58  55 W10       29.94S

$$

INZ060-061-067>069-081>083-085>088-010200-
SOUTHWEST INDIANA

CITY           SKY/WX    TMP DP  RH WIND       PRES   REMARKS
EVANSVILLE     CLEAR     84  68  58 W3        29.99F
HUNTINGBURG *+ CLEAR     81  70  69 W3        29.99S
WASHINGTON +   CLEAR     77  68  72 W5        29.98S

$$

INZ062-063-066-070>080-084-089>092-010200-
SOUTH CENTRAL AND SOUTHEAST INDIANA

CITY           SKY/WX    TMP DP  RH WIND       PRES   REMARKS
BLOOMINGTON    CLEAR     76  58  53 NW3       29.99S
MADISON *+     CLEAR     73  64  73 SW3       30.00S
NORTH VERNON + CLEAR     79  63  57 SW6       29.98S
SEYMOUR +      CLEAR     77  66  69 SW5       29.97S

$$




USA.gov is the U.S. government's official web portal to all federal, state and local government web resources and services.